Regional Weather Roundup
Issued by NWS

Home | Current Version | Previous Version | Graphics & Text | Print | Product List | Glossary On
Versions: 1 2 3 4 5 6 7 8 9 10 11 12 13 14 15 16 17 18 19 20 21 22 23 24 25 26 27 28 29 30 31 32 33 34 35 36 37 38 39 40 41 42 43 44 45 46 47 48 49 50
000
ASUS45 KBOU 060910
RWRCO

WEATHER ROUNDUP FOR COLORADO
NATIONAL WEATHER SERVICE DENVER/BOULDER CO
300 AM MDT MON JUL 06 2015

NOTE: "FAIR" INDICATES FEW OR NO CLOUDS BELOW 12000 FEET WITH NO
SIGNIFICANT WEATHER AND/OR OBSTRUCTIONS TO VISIBILITY.

COZ001>005-013-030-031-061000-
...NORTHWEST COLORADO...

CITY           SKY/WX    TMP DP  RH WIND       PRES   REMARKS
CRAIG          MOCLDY    52  50  93 CALM      30.25R FOG
HAYDEN         PTCLDY    52  48  87 CALM      30.25R
MEEKER         MOCLDY    55  51  86 E7        30.24R
MOUNT WERNER   NOT AVBL
STEAMBOAT SPGS CLOUDY    51  51  99 CALM      30.27R VSB 3/4
WALDEN         MOCLDY    50  46  87 S5        30.32R
$$

COZ006>008-011-061000-
...WEST CENTRAL VALLEYS...

CITY           SKY/WX    TMP DP  RH WIND       PRES   REMARKS
GRAND JUNCTION MOCLDY    62  59  90 NE6       30.11S
MONTROSE       MOCLDY    58  55  90 S3        30.20S
EAGLE          PTCLDY    55  55 100 CALM      30.27S
RIFLE          MOCLDY    59  55  87 E3        30.18S
DELTA          MOCLDY    62  58  87 NE6       30.16S
NUCLA          MOCLDY    61  54  77 E5        30.23R
$$

COZ017>023-064>068-061000-
...SOUTHWEST COLORADO...

CITY           SKY/WX    TMP DP  RH WIND       PRES   REMARKS
DURANGO        CLOUDY    58  50  75 E3        30.19S
CORTEZ         CLEAR     64  53  67 E3        30.18R
PAGOSA SPRINGS CLOUDY    55  51  84 CALM      30.27S
TELLURIDE      MOCLDY    50  49  95 SE3       30.41S
WOLF CREEK PAS NOT AVBL
$$

COZ009-010-012-014-032>034-037-058>063-061000-
...CENTRAL COLORADO...

CITY           SKY/WX    TMP DP  RH WIND       PRES   REMARKS
ASPEN          PTCLDY    51  48  89 SW5       30.30S
BUENA VISTA    MOCLDY    60  47  63 NW13      30.26S
COPPER MTN     HAZE      46  41  81 W13       30.57S VSB<1/4
BERTHOUD PASS  HAZE      37  30  75 NW21      30.59R VSB 1/4
COTTONWOOD PAS NOT AVBL
GUNNISON       PTCLDY    52  46  82 NW5       30.33S
KREMMLING      PTCLDY    52  48  87 CALM      30.30S
LEADVILLE      MOCLDY    47  47 100 N6        30.41F
MONARCH PASS   FOG       43  41  93 SW15G21   30.65R VSB<1/4
SALIDA         CLOUDY    64  51  62 NW3       30.32R
SUNLIGHT       MOCLDY    50  45  81 CALM      30.53R
WILKERSON PASS CLOUDY    50  37  62 CALM      30.53S
$$

COZ069>075-061000-
...SAN LUIS VALLEY/SANGRE DE CRISTO MOUNTAINS...

CITY           SKY/WX    TMP DP  RH WIND       PRES   REMARKS
ALAMOSA        CLOUDY    58  53  84 CALM      30.25S
LA VETA PASS   CLOUDY    46  45  93 MISG      30.44S FOG
SAGUACHE       CLOUDY    55  50  82 N9        30.29S
$$

COZ035-036-038>040-061000-
...NORTHERN COLORADO FRONT RANGE...

CITY           SKY/WX    TMP DP  RH WIND       PRES   REMARKS
DENVER INTL AP CLOUDY    63  58  83 N6        30.16R
DMNS CITY PARK   N/A     64  58  81 N9G15     30.17S
AURORA         MOCLDY    61  61  99 N5        30.18S
FRONT RANGE AP NOT AVBL
ERIE MUNI ARPT LGT RAIN  64  59  85 N5        30.16R
BOULDER MUN AP CLOUDY    63  59  88 NE6       30.17R
CENTENNIAL     CLOUDY    62  59  90 NE13      30.19S
BROOMFIELD     CLOUDY    63  59  88 N5        30.19R
FORT COLLINS   CLOUDY    63  57  82 N9        30.16S
LONGMONT       LGT RAIN  64  61  90 NE6       30.17S
$$

COZ041-046-047-076>085-087-088-061000-
...PIKES PEAK/PALMER DIVIDE AND SOUTHERN FOOTHILLS...

CITY           SKY/WX    TMP DP  RH WIND       PRES   REMARKS
COLO. SPRINGS  CLOUDY    63  57  81 N14       30.19R
A. F. ACADEMY  CLOUDY    61  56  82 NW14      30.20R
ELLICOTT       CLOUDY   N/A N/A N/A N12       30.17R
FALCON         DRIZZLE   59  57  94 N15       30.23S
FORT CARSON    CLOUDY    64  58  80 N8        30.16R
LIMON          LGT RAIN  61  60  97 N15       30.12S
MONUMENT HILL  CLOUDY    55  55 100 MISG      30.25R
TRINIDAD       MOCLDY    64  56  75 NW5       30.15R
$$

COZ042>045-048>051-090-091-061000-
...NORTHEAST COLORADO...

CITY           SKY/WX    TMP DP  RH WIND       PRES   REMARKS
GREELEY ARPT   CLOUDY    64  57  77 N10G17    30.14R
AKRON          CLOUDY    63  61  93 N17       30.08R
BURLINGTON     CLOUDY    66  63  90 N14       30.01R
WRAY           CLOUDY    67  63  88 N18G24    30.00S
STERLING       CLOUDY    64  61  88 N15         N/A
HOLYOKE        CLOUDY    66  63  88 N12       30.03R
FORT MORGAN    CLOUDY    63  57  80 N17       30.10R
$$

COZ086-089-092>099-061000-
...SOUTHEAST COLORADO...

CITY           SKY/WX    TMP DP  RH WIND       PRES   REMARKS
PUEBLO         CLOUDY    70  59  68 N12       30.08R
LA JUNTA       CLOUDY    68  62  81 NW10      30.01R
LAMAR          CLOUDY    73  61  65 N17G24    29.92R
SPRINGFIELD      N/A     70  60  70 N16       29.99R
$$



USA.gov is the U.S. government's official web portal to all federal, state and local government web resources and services.